This demonstration page uses our WeatherBlox Daily Observations layout. Learn more.

Left ArrowRight Arrow

47.50024, -111.30081

Hourly Observations for April 25, 2022

Temp ( °F °C ) Dew Point ( °F °C ) Humidity (%) Winds ( mph kmh ) Pressure ( in mb ) Visibility ( mi km ) Precip ( " mm )
12:53 am 00:53 Clear 42 5.6 24 -4.4 49 49 S 13 20 30.19 1022 10 16 0.00 0.00
1:53 am 01:53 Clear 42 5.6 25 -3.9 51 51 SSW 15 24 30.19 1022 10 16 0.00 0.00
2:53 am 02:53 Clear 42 5.6 24 -4.4 49 49 S 15 24 30.18 1022 10 16 0.00 0.00
3:53 am 03:53 Clear 41 5 24 -4.4 51 51 S 15 24 30.17 1022 10 16 0.00 0.00
4:53 am 04:53 Clear 40 4.4 24 -4.4 53 53 SSW 15 24 30.16 1022 10 16 0.00 0.00
5:53 am 05:53 Clear 39 3.9 24 -4.4 55 55 S 14 22 30.17 1022 10 16 0.00 0.00
6:53 am 06:53 Sunny 40 4.4 24 -4.4 53 53 S 14 22 30.17 1022 10 16 0.00 0.00
7:53 am 07:53 Sunny 44 6.7 24 -4.4 45 45 SSW 15 24 30.16 1022 10 16 0.00 0.00
8:53 am 08:53 Sunny 49 9.4 25 -3.9 39 39 SSW 16 26 30.16 1021 10 16 0.00 0.00
9:53 am 09:53 Sunny 54 12.2 25 -3.9 33 33 SSW 16 26 30.13 1020 10 16 0.00 0.00
10:53 am 10:53 Sunny 57 13.9 23 -5 27 27 SSW 14 22 30.11 1020 10 16 0.00 0.00
11:53 am 11:53 Sunny 60 15.6 20 -6.7 21 21 WSW 17 28 30.07 1018 10 16 0.00 0.00
12:53 pm 12:53 Sunny 62 16.7 17 -8.3 17 17 SW 14 22 30.06 1018 10 16 0.00 0.00
1:53 pm 13:53 Sunny 64 17.8 19 -7.2 18 18 SW 15 24 30.04 1017 10 16 0.00 0.00
2:53 pm 14:53 Sunny 65 18.3 17 -8.3 16 16 SW 12 19 30.02 1017 10 16 0.00 0.00
3:53 pm 15:53 Sunny 65 18.3 20 -6.7 18 18 S 9 15 30.00 1016 10 16 0.00 0.00
4:53 pm 16:53 Sunny 63 17.2 19 -7.2 18 18 S 9 15 29.99 1016 10 16 0.00 0.00
5:53 pm 17:53 Mostly Cloudy 64 17.8 20 -6.7 18 18 SSW 8 13 29.98 1015 10 16 0.00 0.00
6:53 pm 18:53 Sunny 63 17.2 18 -7.8 17 17 S 14 22 29.96 1015 10 16 0.00 0.00
7:53 pm 19:53 Sunny 56 13.3 23 -5 28 28 SW 6 9 29.97 1015 10 16 0.00 0.00
8:53 pm 20:53 Mostly Clear 50 10 21 -6.1 32 32 W 6 9 29.97 1015 10 16 0.00 0.00
9:53 pm 21:53 Clear 48 8.9 20 -6.7 33 33 WSW 3 6 29.96 1015 10 16 0.00 0.00
10:53 pm 22:53 Clear 48 8.9 21 -6.1 34 34 S 5 7 29.94 1014 10 16 0.00 0.00
11:53 pm 23:53 Clear 47 8.3 22 -5.6 37 37 S 10 17 29.93 1014 10 16 0.00 0.00

Powered by AerisWeather